Home > Weather > Scottsdale > Past weeks

Flag for USA Weather for the Past 2 Weeks in Scottsdale, Arizona, USA

Now
69 °F

Sunny.


Feels Like: 69 °F
Forecast: 57 / 68 °F
Wind: 12 mph from Southwest

Location: Scottsdale Airport

Current Time: Apr 28, 2016 at 12:51:23 PM

Latest Report: Apr 28, 2016 at 11:53 AM


Visibility: 10 mi

Pressure: 29.69 "Hg

Humidity: 20%

Dew Point: 26 °F

Location of ScottsdaleLocation

Historic Weather in Scottsdale — Graph

°F

Scottsdale Temperature Yesterday

Maximum temperature yesterday: 80 °F (at 4:53 PM)
Minimum temperature yesterday: 57 °F (at 5:53 AM)
Average temperature yesterday: 71 °F

High & Low Weather Summary for the Past Weeks

 TemperatureHumidityPressure
High94 °F (Apr 21, 2:53 PM)53% (Apr 14, 5:53 AM)30.05 "Hg (Apr 14, 5:53 AM)
Low56 °F (Apr 16, 4:53 AM)3% (Apr 21, 4:53 PM)29.54 "Hg (Apr 15, 2:53 PM)
Average74 °F18%29.80 "Hg
* Reported Apr 13 11:53 AM — Apr 28 11:53 AM, Scottsdale, Weather by CustomWeather, © 2016

Note: Actual official high and low records may vary slightly from our data, if they occured in-between our weather recording intervals... More about our weather records

Advertising

Scottsdale Weather History for the Previous 24 Hours

Scroll right to see more
 ConditionsComfort  
Time TempWeatherWind HumidityBarometerVisibility
11:53 AM
Thu, Apr 28
69 °FSunny.12 mph20%29.69 "Hg10 mi
10:53 AM69 °FSunny.13 mph20%29.68 "Hg10 mi
9:53 AM68 °FPassing clouds.10 mph20%29.66 "Hg10 mi
8:53 AM65 °FPassing clouds.6 mph24%29.66 "Hg10 mi
7:53 AM63 °FSunny.3 mph27%29.66 "Hg10 mi
6:53 AM62 °FPassing clouds.9 mph30%29.64 "Hg10 mi
5:53 AM61 °FSunny.3 mph27%29.61 "Hg10 mi
4:53 AM64 °FPassing clouds.5 mph26%29.59 "Hg10 mi
3:53 AM65 °FClear.5 mph22%29.59 "Hg10 mi
2:53 AM67 °FPassing clouds.No wind17%29.60 "Hg10 mi
1:53 AM67 °FPassing clouds.6 mph18%29.60 "Hg10 mi
12:53 AM68 °FClear.No wind15%29.60 "Hg10 mi
11:53 PM
Wed, Apr 27
70 °FClear.5 mph12%29.59 "Hg10 mi
10:53 PM73 °FClear.No wind11%29.58 "Hg10 mi
9:53 PM75 °FClear.9 mph11%29.59 "Hg10 mi
8:53 PM77 °FClear.7 mph14%29.59 "Hg10 mi
7:53 PM77 °FClear.7 mph13%29.59 "Hg10 mi
6:53 PM78 °FSunny.6 mph13%29.59 "Hg10 mi
5:53 PM79 °FSunny.7 mph12%29.60 "Hg10 mi
4:53 PM80 °FSunny.N/A12%29.62 "Hg10 mi
3:53 PM79 °FSunny.5 mph12%29.64 "Hg10 mi
2:53 PM79 °FSunny.7 mph12%29.67 "Hg10 mi
1:53 PM78 °FSunny.9 mph13%29.70 "Hg10 mi
12:53 PM77 °FSunny.7 mph14%29.73 "Hg10 mi
Weather by CustomWeather, © 2016

See weather overviewHow to use our weather pages